Hourly Data Report for September 30, 2017

All times are specified in Local Standard Time (LST). Add 1 hour to adjust for Daylight Saving Time where and when it is observed.

ST. STEPHEN
NEW BRUNSWICK

45°12'36.600" N
67°15'10.300" W
26.10 m
8104935
71607
WSS

Download Data

Hourly Data (September 2017)
Hourly Data Report for September 30, 2017
Temp Definition
°C
Dew Point Temp Definition
°C
Rel Hum Definition
%
Wind Dir Definition
10's deg

Wind Spd Definition
km/h
Visibility Definition
km
Stn Press Definition
kPa
Hmdx Definition


Wind Chill Definition


Weather Definition


TIME
00:00 2.5 0.5 87 0 1   101.64     LegendNANA
01:00 2.1 0.4 89 32 1   101.68     LegendNANA
02:00 2.0 0.6 90 24 4   101.72     LegendNANA
03:00 2.8 1.0 88 24 5   101.75     LegendNANA
04:00 3.0 1.2 88 27 5   101.77     LegendNANA
05:00 3.5 1.5 86 27 6   101.84     LegendNANA
06:00 3.3 1.5 88   0   101.93     LegendNANA
07:00 3.5 1.9 89 25 2   102.02     LegendNANA
08:00 5.7 2.4 80 24 6   102.10     LegendNANA
09:00 8.7 1.3 60 1 3   102.15     LegendNANA
10:00 9.9 1.4 56 3 15   102.16     LegendNANA
11:00 11.2 1.4 51 1 12   102.17     LegendNANA
12:00 12.5 0.5 44 5 13   102.17     LegendNANA
13:00 13.6 1.3 43 36 9   102.15     LegendNANA
14:00 11.5 1.2 49 34 8   102.16     LegendNANA
15:00 12.5 0.6 44 27 6   102.12     LegendNANA
16:00 13.2 0.3 41 28 2   102.07     LegendNANA
17:00 13.4 -0.2 39 20 2   102.07     LegendNANA
18:00 10.3 1.7 55 25 4   102.09     LegendNANA
19:00 6.3 2.2 75   0   102.16     LegendNANA
20:00 3.9 1.3 83   0   102.20     LegendNANA
21:00 2.7 0.9 88 22 1   102.24     LegendNANA
22:00 1.1 -0.1 92   0   102.24     LegendNANA
23:00 0.2 -0.6 95   0   102.24     LegendNANA

Notes on Data Quality.

Legend

  • E = Estimated
  • M = Missing
  • NA = Not Available
  • ‡ = Partner data that is not subject to review by the National Climate Archives
Date modified: